"Period start","avg(HW err(1)/warn(2) (#))","avg(Visibility (m))","avg(Weather code (#))","avg(Precip intensity (mm/h))","min(HW err(1)/warn(2) (#))","max(HW err(1)/warn(2) (#))","std(HW err(1)/warn(2) (#))","med(HW err(1)/warn(2) (#))","min(Visibility (m))","max(Visibility (m))","std(Visibility (m))","med(Visibility (m))","min(Weather code (#))","max(Weather code (#))","std(Weather code (#))","med(Weather code (#))","min(Precip intensity (mm/h))","max(Precip intensity (mm/h))","std(Precip intensity (mm/h))","med(Precip intensity (mm/h))"
2016-05-23 00:00:00,2,15389,0,0.00,2,2,0,2,12535,17511,1804,15602,0,0,0,0,0.00,0.00,0.00,0.00
2016-05-23 00:10:00,2,17012,0,0.00,2,2,0,2,11908,28444,4681,15732,0,0,0,0,0.00,0.00,0.00,0.00
2016-05-23 00:20:00,2,16140,0,0.00,2,2,0,2,12370,18532,1809,16674,0,0,0,0,0.00,0.00,0.00,0.00
2016-05-23 00:30:00,2,16380,0,0.00,2,2,0,2,11358,22437,3555,15666,0,0,0,0,0.00,0.00,0.00,0.00
2016-05-23 00:40:00,2,22207,0,0.00,2,2,0,2,11349,44272,9302,18543,0,0,0,0,0.00,0.00,0.00,0.00
2016-05-23 00:50:00,2,24630,0,0.00,2,2,0,2,12996,36962,7359,22122,0,0,0,0,0.00,0.00,0.00,0.00
2016-05-23 01:00:00,2,17677,0,0.00,2,2,0,2,13791,23379,2446,17325,0,0,0,0,0.00,0.00,0.00,0.00
2016-05-23 01:10:00,2,18255,0,0.00,2,2,0,2,15145,21967,2041,17934,0,0,0,0,0.00,0.00,0.00,0.00
2016-05-23 01:20:00,2,21216,0,0.00,2,2,0,2,12917,28288,4496,20326,0,0,0,0,0.00,0.00,0.00,0.00
2016-05-23 01:30:00,2,17576,0,0.00,2,2,0,2,10627,27261,4772,16300,0,0,0,0,0.00,0.00,0.00,0.00
2016-05-23 01:40:00,2,15502,0,0.00,2,2,0,2,11959,21996,3615,13410,0,0,0,0,0.00,0.00,0.00,0.00
2016-05-23 01:50:00,2,17877,0,0.00,2,2,0,2,12904,25682,3796,17977,0,0,0,0,0.00,0.00,0.00,0.00
2016-05-23 02:00:00,2,18414,0,0.00,2,2,0,2,12106,25220,4406,18325,0,0,0,0,0.00,0.00,0.00,0.00
2016-05-23 02:10:00,2,18043,0,0.00,2,2,0,2,14026,23421,2959,18132,0,0,0,0,0.00,0.00,0.00,0.00
2016-05-23 02:20:00,2,18495,0,0.00,2,2,0,2,13172,22366,3055,18986,0,0,0,0,0.00,0.00,0.00,0.00
2016-05-23 02:30:00,2,21230,0,0.00,2,2,0,2,14967,27315,4238,20610,0,0,0,0,0.00,0.00,0.00,0.00
2016-05-23 02:40:00,2,18405,0,0.00,2,2,0,2,14015,28322,5108,16104,0,0,0,0,0.00,0.00,0.00,0.00
2016-05-23 02:50:00,2,24810,0,0.00,2,2,0,2,14621,41734,10016,20245,0,0,0,0,0.00,0.00,0.00,0.00
2016-05-23 03:00:00,2,18112,0,0.00,2,2,0,2,15364,25542,2641,17276,0,0,0,0,0.00,0.00,0.00,0.00
2016-05-23 03:10:00,2,16131,0,0.00,2,2,0,2,10449,25754,3867,15517,0,0,0,0,0.00,0.00,0.00,0.00
2016-05-23 03:20:00,2,17562,0,0.00,2,2,0,2,13068,24332,3632,17195,0,0,0,0,0.00,0.00,0.00,0.00
2016-05-23 03:30:00,2,18705,0,0.00,2,2,0,2,13480,27841,4593,17462,0,0,0,0,0.00,0.00,0.00,0.00
2016-05-23 03:40:00,2,17381,0,0.00,2,2,0,2,12693,27503,4505,16007,0,0,0,0,0.00,0.00,0.00,0.00
2016-05-23 03:50:00,2,17383,0,0.00,2,2,0,2,11526,30828,5553,15424,0,0,0,0,0.00,0.00,0.00,0.00
2016-05-23 04:00:00,2,16218,0,0.00,2,2,0,2,12800,20938,2711,15448,0,0,0,0,0.00,0.00,0.00,0.00
2016-05-23 04:10:00,2,17117,0,0.00,2,2,0,2,12848,26752,3927,16725,0,0,0,0,0.00,0.00,0.00,0.00
2016-05-23 04:20:00,2,14834,0,0.00,2,2,0,2,9371,19767,3142,14398,0,0,0,0,0.00,0.00,0.00,0.00
2016-05-23 04:30:00,2,14757,0,0.00,2,2,0,2,11189,19080,2387,14326,0,0,0,0,0.00,0.00,0.00,0.00
2016-05-23 04:40:00,2,12729,0,0.00,2,2,0,2,9840,15014,1389,12459,0,0,0,0,0.00,0.00,0.00,0.00
2016-05-23 04:50:00,2,13628,0,0.00,2,2,0,2,11440,16876,1597,13230,0,0,0,0,0.00,0.00,0.00,0.00
2016-05-23 05:00:00,2,12592,0,0.00,2,2,0,2,11109,17231,1664,12426,0,0,0,0,0.00,0.00,0.00,0.00
2016-05-23 05:10:00,2,13731,0,0.00,2,2,0,2,10891,16371,1727,13734,0,0,0,0,0.00,0.00,0.00,0.00
2016-05-23 05:20:00,2,18193,0,0.00,2,2,0,2,14616,24350,3250,17906,0,0,0,0,0.00,0.00,0.00,0.00
2016-05-23 05:30:00,2,17886,0,0.00,2,2,0,2,14861,23379,2479,17378,0,0,0,0,0.00,0.00,0.00,0.00
2016-05-23 05:40:00,2,16469,0,0.00,2,2,0,2,14898,19526,1584,15945,0,0,0,0,0.00,0.00,0.00,0.00
2016-05-23 05:50:00,2,20376,0,0.00,2,2,0,2,14217,24356,3333,20967,0,0,0,0,0.00,0.00,0.00,0.00
2016-05-23 06:00:00,2,21051,0,0.00,2,2,0,2,15410,28573,4650,19372,0,0,0,0,0.00,0.00,0.00,0.00
2016-05-23 06:10:00,2,19968,0,0.00,2,2,0,2,14218,28546,4738,18685,0,0,0,0,0.00,0.00,0.00,0.00
2016-05-23 06:20:00,2,19399,0,0.00,2,2,0,2,11970,27597,5049,18978,0,0,0,0,0.00,0.00,0.00,0.00
2016-05-23 06:30:00,2,14437,0,0.00,2,2,0,2,11134,18705,2095,14666,0,0,0,0,0.00,0.00,0.00,0.00
2016-05-23 06:40:00,2,14139,0,0.00,2,2,0,2,11407,19679,2647,13404,0,0,0,0,0.00,0.00,0.00,0.00
2016-05-23 06:50:00,2,12110,0,0.00,2,2,0,2,10773,14241,1015,12236,0,0,0,0,0.00,0.00,0.00,0.00
2016-05-23 07:00:00,2,12437,0,0.00,2,2,0,2,10078,16096,1668,12534,0,0,0,0,0.00,0.00,0.00,0.00
2016-05-23 07:10:00,2,10690,0,0.00,2,2,0,2,9843,11387,454,10812,0,0,0,0,0.00,0.00,0.00,0.00
2016-05-23 07:20:00,2,10407,0,0.00,2,2,0,2,9310,11816,853,10186,0,0,0,0,0.00,0.00,0.00,0.00
2016-05-23 07:30:00,2,9836,0,0.00,2,2,0,2,8881,10928,558,9772,0,0,0,0,0.00,0.00,0.00,0.00
2016-05-23 07:40:00,2,10091,0,0.00,2,2,0,2,8434,12128,1172,10186,0,0,0,0,0.00,0.00,0.00,0.00
2016-05-23 07:50:00,2,9845,0,0.00,2,2,0,2,8830,10817,694,9822,0,0,0,0,0.00,0.00,0.00,0.00
2016-05-23 08:00:00,2,9445,0,0.00,2,2,0,2,8721,10528,560,9272,0,0,0,0,0.00,0.00,0.00,0.00
2016-05-23 08:10:00,2,9646,0,0.00,2,2,0,2,8704,11438,822,9576,0,0,0,0,0.00,0.00,0.00,0.00
2016-05-23 08:20:00,2,9556,0,0.00,2,2,0,2,8725,10649,628,9706,0,0,0,0,0.00,0.00,0.00,0.00
2016-05-23 08:30:00,2,9344,0,0.00,2,2,0,2,8316,10658,805,9386,0,0,0,0,0.00,0.00,0.00,0.00
2016-05-23 08:40:00,2,9652,0,0.00,2,2,0,2,9125,10180,322,9662,0,0,0,0,0.00,0.00,0.00,0.00
2016-05-23 08:50:00,2,9160,0,0.00,2,2,0,2,7828,10392,844,9138,0,0,0,0,0.00,0.00,0.00,0.00
2016-05-23 09:00:00,2,9458,0,0.00,2,2,0,2,8034,10675,759,9584,0,0,0,0,0.00,0.00,0.00,0.00
2016-05-23 09:10:00,2,9567,0,0.00,2,2,0,2,9014,11050,569,9390,0,0,0,0,0.00,0.00,0.00,0.00
2016-05-23 09:20:00,2,9690,0,0.00,2,2,0,2,8234,11366,811,9768,0,0,0,0,0.00,0.00,0.00,0.00
2016-05-23 09:30:00,2,9334,0,0.00,2,2,0,2,8073,10998,840,9382,0,0,0,0,0.00,0.00,0.00,0.00
2016-05-23 09:40:00,2,8955,2,0.00,2,2,0,2,7869,9871,606,9018,0,10,4,0,0.00,0.00,0.00,0.00
2016-05-23 09:50:00,2,8809,10,0.00,2,2,0,2,8252,9815,426,8844,10,10,0,10,0.00,0.00,0.00,0.00
2016-05-23 10:00:00,2,8523,10,0.00,2,2,0,2,7773,9561,511,8587,10,10,0,10,0.00,0.00,0.00,0.00
2016-05-23 10:10:00,2,7723,10,0.00,2,2,0,2,6846,9014,619,7572,10,10,0,10,0.00,0.00,0.00,0.00
2016-05-23 10:20:00,2,7522,10,0.00,2,2,0,2,7159,8182,399,7335,10,10,0,10,0.00,0.00,0.00,0.00
2016-05-23 10:30:00,2,6996,10,0.00,2,2,0,2,5999,7774,532,7146,10,10,0,10,0.00,0.00,0.00,0.00
2016-05-23 10:40:00,2,6945,10,0.00,2,2,0,2,6679,7462,266,6898,10,10,0,10,0.00,0.00,0.00,0.00
2016-05-23 10:50:00,2,6661,10,0.00,2,2,0,2,6279,6910,196,6688,10,10,0,10,0.00,0.00,0.00,0.00
2016-05-23 11:00:00,2,6336,10,0.00,2,2,0,2,6059,6588,160,6386,10,10,0,10,0.00,0.00,0.00,0.00
2016-05-23 11:10:00,2,6213,10,0.00,2,2,0,2,5798,6625,277,6176,10,10,0,10,0.00,0.00,0.00,0.00
2016-05-23 11:20:00,2,5943,10,0.00,2,2,0,2,5669,6258,179,5934,10,10,0,10,0.00,0.00,0.00,0.00
2016-05-23 11:30:00,2,5408,10,0.00,2,2,0,2,4935,5893,390,5466,10,10,0,10,0.00,0.00,0.00,0.00
2016-05-23 11:40:00,2,4929,10,0.00,2,2,0,2,4324,5225,271,4986,10,10,0,10,0.00,0.00,0.00,0.00
2016-05-23 11:50:00,2,3556,10,0.00,2,2,0,2,3130,4507,459,3447,10,10,0,10,0.00,0.00,0.00,0.00
2016-05-23 12:00:00,2,3197,10,0.00,2,2,0,2,3048,3343,93,3206,10,10,0,10,0.00,0.00,0.00,0.00
2016-05-23 12:10:00,2,3026,10,0.00,2,2,0,2,2850,3211,141,2994,10,10,0,10,0.00,0.00,0.00,0.00
2016-05-23 12:20:00,2,2935,10,0.00,2,2,0,2,2771,3097,112,2944,10,10,0,10,0.00,0.00,0.00,0.00
2016-05-23 12:30:00,2,2856,10,0.00,2,2,0,2,2653,3052,127,2844,10,10,0,10,0.00,0.00,0.00,0.00
2016-05-23 12:40:00,2,3115,42,0.03,2,2,0,2,2972,3338,100,3101,10,77,32,40,0.00,0.10,0.03,0.00
2016-05-23 12:50:00,2,2969,77,0.04,2,2,0,2,2768,3135,130,2996,77,77,0,77,0.00,0.10,0.03,0.05
2016-05-23 13:00:00,2,3102,77,0.07,2,2,0,2,2880,3272,102,3106,77,77,0,77,0.00,0.15,0.04,0.05
2016-05-23 13:10:00,2,3038,77,0.07,2,2,0,2,2658,3466,251,2970,77,77,0,77,0.00,0.15,0.04,0.05
2016-05-23 13:20:00,2,3927,77,0.04,2,2,0,2,3169,4386,398,4016,77,77,0,77,0.00,0.15,0.04,0.05
2016-05-23 13:30:00,2,4143,77,0.03,2,2,0,2,3862,4464,196,4178,77,77,0,77,0.00,0.05,0.02,0.05
2016-05-23 13:40:00,2,4446,77,0.02,2,2,0,2,3901,4922,337,4320,77,77,0,77,0.00,0.05,0.02,0.00
2016-05-23 13:50:00,2,3474,77,0.06,2,2,0,2,2864,3855,304,3593,77,77,0,77,0.05,0.10,0.02,0.05
2016-05-23 14:00:00,2,3644,77,0.07,2,2,0,2,2654,5080,864,3396,77,77,0,77,0.05,0.10,0.02,0.05
2016-05-23 14:10:00,2,5400,77,0.05,2,2,0,2,4733,5998,399,5380,77,77,0,77,0.05,0.05,0.00,0.05
2016-05-23 14:20:00,2,7047,77,0.01,2,2,0,2,4936,8560,1202,7443,77,77,0,77,0.00,0.05,0.02,0.00
2016-05-23 14:30:00,2,8444,78,0.01,2,2,0,2,6524,10254,1330,8523,78,78,0,78,0.00,0.05,0.02,0.00
2016-05-23 14:40:00,2,7005,74,0.07,2,2,0,2,5800,8157,762,6780,71,78,3,71,0.00,0.15,0.04,0.05
2016-05-23 14:50:00,2,9677,77,0.07,2,2,0,2,7433,11346,1206,9824,77,78,0,77,0.00,0.35,0.10,0.05
2016-05-23 15:00:00,2,9313,71,0.15,2,2,0,2,3441,11929,2552,10554,71,71,0,71,0.00,0.80,0.23,0.10
2016-05-23 15:10:00,2,2981,71,0.91,2,2,0,2,2063,3472,436,3160,71,71,0,71,0.45,1.70,0.39,0.83
2016-05-23 15:20:00,2,3883,71,0.89,2,2,0,2,2463,6181,1321,3508,71,71,0,71,0.10,1.55,0.52,1.02
2016-05-23 15:30:00,2,4405,71,0.35,2,2,0,2,3704,5398,544,4272,71,71,0,71,0.15,0.65,0.16,0.30
2016-05-23 15:40:00,2,4777,71,0.33,2,2,0,2,3741,5266,436,4914,71,71,0,71,0.15,0.65,0.15,0.30
2016-05-23 15:50:00,2,4337,71,0.44,2,2,0,2,3856,4930,320,4274,71,71,0,71,0.25,0.70,0.16,0.40
2016-05-23 16:00:00,2,4446,71,0.38,2,2,0,2,3670,5032,409,4500,71,71,0,71,0.10,0.65,0.18,0.40
2016-05-23 16:10:00,2,4031,71,0.40,2,2,0,2,3127,5077,494,3910,71,71,0,71,0.10,1.00,0.28,0.25
2016-05-23 16:20:00,2,5386,71,0.35,2,2,0,2,4467,6873,647,5142,71,71,0,71,0.10,0.70,0.17,0.30
2016-05-23 16:30:00,2,4998,71,0.43,2,2,0,2,3930,6856,832,4940,71,71,0,71,0.20,0.80,0.18,0.38
2016-05-23 16:40:00,2,5264,71,0.44,2,2,0,2,4033,6197,638,5275,71,71,0,71,0.10,1.25,0.35,0.35
2016-05-23 16:50:00,2,6496,71,0.26,2,2,0,2,5376,7277,528,6518,71,71,0,71,0.05,0.80,0.23,0.17
2016-05-23 17:00:00,2,4437,71,0.40,2,2,0,2,3065,5643,868,4848,71,71,0,71,0.10,1.10,0.28,0.38
2016-05-23 17:10:00,2,3819,71,0.34,2,2,0,2,2657,4791,614,3866,71,71,0,71,0.05,0.80,0.21,0.38
2016-05-23 17:20:00,2,3825,71,0.20,2,2,0,2,3349,4258,313,3872,71,71,0,71,0.05,0.40,0.11,0.17
2016-05-23 17:30:00,2,4486,71,0.15,2,2,0,2,3620,5546,584,4464,71,71,0,71,0.05,0.30,0.09,0.15
2016-05-23 17:40:00,2,3857,71,0.34,2,2,0,2,3402,4595,375,3760,71,71,0,71,0.15,0.95,0.23,0.25
2016-05-23 17:50:00,2,4291,71,0.23,2,2,0,2,3580,6018,676,4164,71,71,0,71,0.10,0.40,0.09,0.23
2016-05-23 18:00:00,2,4978,71,0.21,2,2,0,2,3482,6921,982,5034,71,71,0,71,0.05,0.55,0.15,0.23
2016-05-23 18:10:00,2,4360,71,0.27,2,2,0,2,3699,4921,381,4478,71,71,0,71,0.15,0.45,0.09,0.25
2016-05-23 18:20:00,2,4219,71,0.23,2,2,0,2,3109,5183,592,4196,71,71,0,71,0.10,0.40,0.11,0.15
2016-05-23 18:30:00,2,4247,71,0.52,2,2,0,2,3155,5701,766,4057,71,71,0,71,0.20,0.90,0.24,0.53
2016-05-23 18:40:00,2,5258,71,0.30,2,2,0,2,4357,6968,907,4764,71,71,0,71,0.05,0.90,0.25,0.20
2016-05-23 18:50:00,2,6679,71,0.12,2,2,0,2,5611,7383,523,6687,71,71,0,71,0.05,0.30,0.09,0.08
2016-05-23 19:00:00,2,6238,75,0.04,2,2,0,2,5484,6749,416,6394,71,77,3,77,0.00,0.15,0.05,0.03
2016-05-23 19:10:00,2,6247,75,0.14,2,2,0,2,5318,7180,548,6158,71,77,3,77,0.00,0.60,0.17,0.08
2016-05-23 19:20:00,2,6254,75,0.15,2,2,0,2,5895,6632,265,6199,71,77,3,77,0.05,0.40,0.10,0.12
2016-05-23 19:30:00,2,5917,71,0.17,2,2,0,2,5615,6235,185,5880,71,71,0,71,0.10,0.40,0.11,0.10
2016-05-23 19:40:00,2,5325,71,0.45,2,2,0,2,3814,6291,645,5515,71,71,0,71,0.20,1.00,0.27,0.33
2016-05-23 19:50:00,2,5440,71,0.35,2,2,0,2,4287,7014,970,5341,71,71,0,71,0.05,0.90,0.24,0.33
2016-05-23 20:00:00,2,4898,71,0.46,2,2,0,2,4056,7351,962,4650,71,71,0,71,0.15,0.80,0.22,0.40
2016-05-23 20:10:00,2,5379,71,0.45,2,2,0,2,3300,6841,1029,5706,71,71,0,71,0.15,1.15,0.29,0.43
2016-05-23 20:20:00,2,6423,71,0.20,2,2,0,2,5594,7983,779,6182,71,71,0,71,0.05,0.40,0.11,0.15
2016-05-23 20:30:00,2,6691,71,0.19,2,2,0,2,5497,8157,830,6742,71,71,0,71,0.05,0.55,0.14,0.15
2016-05-23 20:40:00,2,6165,71,0.28,2,2,0,2,5248,6931,608,5958,71,71,0,71,0.05,0.60,0.18,0.25
2016-05-23 20:50:00,2,6542,71,0.17,2,2,0,2,4375,7492,873,6752,71,71,0,71,0.00,0.60,0.16,0.12
2016-05-23 21:00:00,2,7716,72,0.11,2,2,0,2,5139,9114,1523,8602,71,77,2,71,0.00,0.40,0.16,0.00
2016-05-23 21:10:00,2,6714,73,0.12,2,2,0,2,4660,8567,1102,6711,71,77,3,71,0.00,0.40,0.11,0.10
2016-05-23 21:20:00,2,6320,71,0.23,2,2,0,2,4759,8456,1087,6014,71,71,0,71,0.05,0.55,0.15,0.23
2016-05-23 21:30:00,2,7167,71,0.14,2,2,0,2,6507,8419,606,6986,71,71,0,71,0.00,0.40,0.14,0.08
2016-05-23 21:40:00,2,6100,71,0.22,2,2,0,2,3807,7363,1198,6434,71,71,0,71,0.05,0.55,0.16,0.17
2016-05-23 21:50:00,2,6608,71,0.20,2,2,0,2,4789,8000,1008,6821,71,71,0,71,0.05,0.60,0.20,0.10
2016-05-23 22:00:00,2,7573,71,0.07,2,2,0,2,6625,8129,421,7524,71,71,0,71,0.00,0.30,0.09,0.05
2016-05-23 22:10:00,2,7891,71,0.07,2,2,0,2,6720,8778,571,8112,71,71,0,71,0.00,0.25,0.08,0.05
2016-05-23 22:20:00,2,9140,56,0.02,2,2,0,2,8036,9648,485,9232,10,77,27,77,0.00,0.10,0.03,0.00
2016-05-23 22:30:00,2,8971,10,0.00,2,2,0,2,8185,10091,541,8892,10,10,0,10,0.00,0.00,0.00,0.00
2016-05-23 22:40:00,2,8616,10,0.00,2,2,0,2,8165,9338,352,8562,10,10,0,10,0.00,0.00,0.00,0.00
2016-05-23 22:50:00,2,8394,10,0.00,2,2,0,2,6863,9527,865,8556,10,10,0,10,0.00,0.00,0.00,0.00
2016-05-23 23:00:00,2,9960,10,0.00,2,2,0,2,9053,11643,763,9802,10,10,0,10,0.00,0.00,0.00,0.00
2016-05-23 23:10:00,2,9487,10,0.00,2,2,0,2,8834,10533,505,9420,10,10,0,10,0.00,0.00,0.00,0.00
2016-05-23 23:20:00,2,9748,10,0.00,2,2,0,2,8604,11125,806,9680,10,10,0,10,0.00,0.00,0.00,0.00
2016-05-23 23:30:00,2,8786,13,0.00,2,2,0,2,7752,9379,485,8905,10,40,9,10,0.00,0.00,0.00,0.00
2016-05-23 23:40:00,2,6618,65,0.03,2,2,0,2,5954,7274,403,6515,41,77,16,74,0.00,0.05,0.02,0.05
2016-05-23 23:50:00,2,5528,76,0.02,2,2,0,2,4045,6828,984,5800,71,77,2,77,0.00,0.05,0.02,0.00
